| time (UTC) | temp F | wind direction | speed MPH | gust MPH | rain 1hr in | rain 24hr in | rain mn in | humidity % | barometer mb |
| 20260507213350 | 85 | 84 | 2.0 | 2.0 | 0.00 | 0.00 | 0.00 | 79 | 1002.0 |
| 20260507212851 | 86 | 102 | 2.0 | 2.0 | 0.00 | 0.00 | 0.00 | 79 | 1002.0 |
| 20260507212351 | 85 | 95 | 1.0 | 2.0 | 0.00 | 0.00 | 0.00 | 79 | 1002.0 |
| 20260507211850 | 85 | 85 | 4.0 | 6.0 | 0.00 | 0.00 | 0.00 | 78 | 1002.0 |
| 20260507211351 | 86 | 150 | 1.0 | 2.0 | 0.00 | 0.00 | 0.00 | 79 | 1002.0 |
| 20260507210850 | 85 | 99 | 2.0 | 2.0 | 0.00 | 0.00 | 0.00 | 79 | 1002.0 |
| 20260507210350 | 86 | 118 | 4.0 | 6.0 | 0.00 | 0.00 | 0.00 | 78 | 1002.0 |
| 20260507205850 | 86 | 104 | 2.0 | 3.0 | 0.00 | 0.00 | 0.00 | 78 | 1002.0 |
| 20260507205351 | 85 | 97 | 3.0 | 5.0 | 0.00 | 0.00 | 0.00 | 78 | 1002.0 |
| 20260507204850 | 85 | 90 | 5.0 | 5.0 | 0.00 | 0.00 | 0.00 | 78 | 1002.0 |
| 20260507204350 | 86 | 105 | 3.0 | 3.0 | 0.00 | 0.00 | 0.00 | 78 | 1002.0 |
| 20260507203851 | 86 | 81 | 3.0 | 3.0 | 0.00 | 0.00 | 0.00 | 78 | 1002.0 |
| 20260507203351 | 86 | 114 | 4.0 | 5.0 | 0.00 | 0.00 | 0.00 | 78 | 1003.0 |
| 20260507202850 | 86 | 95 | 1.0 | 3.0 | 0.00 | 0.00 | 0.00 | 78 | 1002.0 |
| 20260507202350 | 86 | 101 | 4.0 | 5.0 | 0.00 | 0.00 | 0.00 | 78 | 1002.0 |
| 20260507201851 | 86 | 69 | 4.0 | 5.0 | 0.00 | 0.00 | 0.00 | 78 | 1002.0 |
| 20260507201350 | 86 | 72 | 1.0 | 2.0 | 0.00 | 0.00 | 0.00 | 79 | 1003.0 |
| 20260507200850 | 86 | 80 | 1.0 | 2.0 | 0.00 | 0.00 | 0.00 | 78 | 1003.0 |
| 20260507200350 | 86 | 76 | 0.0 | 1.0 | 0.00 | 0.00 | 0.00 | 78 | 1003.0 |
| 20260507195850 | 86 | 97 | 4.0 | 6.0 | 0.00 | 0.00 | 0.00 | 78 | 1003.0 |
| 20260507195350 | 86 | 104 | 1.0 | 2.0 | 0.00 | 0.00 | 0.00 | 77 | 1003.0 |
| 20260507194850 | 86 | 133 | 4.0 | 5.0 | 0.00 | 0.00 | 0.00 | 77 | 1003.0 |
| 20260507194351 | 86 | 150 | 5.0 | 6.0 | 0.00 | 0.00 | 0.00 | 77 | 1003.0 |
| 20260507193851 | 86 | 70 | 4.0 | 8.0 | 0.00 | 0.00 | 0.00 | 78 | 1003.0 |
| 20260507193351 | 86 | 125 | 2.0 | 2.0 | 0.00 | 0.00 | 0.00 | 78 | 1003.0 |
| 20260507192850 | 86 | 105 | 2.0 | 3.0 | 0.00 | 0.00 | 0.00 | 78 | 1003.0 |
| 20260507192350 | 86 | 139 | 3.0 | 5.0 | 0.00 | 0.00 | 0.00 | 77 | 1003.0 |
| 20260507191854 | 86 | 134 | 3.0 | 3.0 | 0.00 | 0.00 | 0.00 | 77 | 1003.0 |
| 20260507191351 | 86 | 96 | 3.0 | 6.0 | 0.00 | 0.00 | 0.00 | 77 | 1003.0 |
| 20260507190850 | 86 | 94 | 6.0 | 7.0 | 0.00 | 0.00 | 0.00 | 77 | 1003.0 |
| 20260507190351 | 86 | 110 | 5.0 | 7.0 | 0.00 | 0.00 | 0.00 | 77 | 1003.0 |
| 20260507185850 | 86 | 58 | 5.0 | 7.0 | 0.00 | 0.00 | 0.00 | 76 | 1003.0 |
| 20260507185350 | 86 | 92 | 4.0 | 5.0 | 0.00 | 0.00 | 0.00 | 77 | 1003.0 |
| 20260507184851 | 86 | 61 | 3.0 | 5.0 | 0.00 | 0.00 | 0.00 | 77 | 1004.0 |
| 20260507184354 | 86 | 60 | 4.0 | 5.0 | 0.00 | 0.00 | 0.00 | 77 | 1004.0 |
| 20260507183851 | 86 | 99 | 2.0 | 2.0 | 0.00 | 0.00 | 0.00 | 77 | 1004.0 |
| 20260507183350 | 86 | 146 | 4.0 | 5.0 | 0.00 | 0.00 | 0.00 | 77 | 1003.0 |
| 20260507182851 | 86 | 137 | 3.0 | 3.0 | 0.00 | 0.00 | 0.00 | 76 | 1004.0 |
| 20260507182350 | 86 | 153 | 1.0 | 1.0 | 0.00 | 0.00 | 0.00 | 76 | 1004.0 |
| 20260507181851 | 86 | 124 | 2.0 | 2.0 | 0.00 | 0.00 | 0.00 | 77 | 1004.0 |
| 20260507181350 | 86 | 81 | 1.0 | 2.0 | 0.00 | 0.00 | 0.00 | 76 | 1004.0 |
| 20260507180851 | 86 | 136 | 2.0 | 2.0 | 0.00 | 0.00 | 0.00 | 76 | 1004.0 |
| 20260507180352 | 86 | 76 | 5.0 | 7.0 | 0.00 | 0.00 | 0.00 | 75 | 1004.0 |
| 20260507175850 | 86 | 78 | 1.0 | 2.0 | 0.00 | 0.00 | 0.00 | 75 | 1004.0 |
| 20260507175350 | 86 | 115 | 5.0 | 7.0 | 0.00 | 0.00 | 0.00 | 75 | 1004.0 |
| 20260507174850 | 86 | 142 | 2.0 | 2.0 | 0.00 | 0.00 | 0.00 | 74 | 1004.0 |
| 20260507174351 | 86 | 86 | 5.0 | 8.0 | 0.00 | 0.00 | 0.00 | 74 | 1004.0 |
| 20260507173850 | 86 | 70 | 4.0 | 5.0 | 0.00 | 0.00 | 0.00 | 74 | 1004.0 |
| 20260507173350 | 86 | 115 | 3.0 | 3.0 | 0.00 | 0.00 | 0.00 | 74 | 1004.0 |
| 20260507172850 | 86 | 70 | 6.0 | 7.0 | 0.00 | 0.00 | 0.00 | 75 | 1004.0 |
| 20260507172350 | 86 | 50 | 4.0 | 6.0 | 0.00 | 0.00 | 0.00 | 76 | 1004.0 |
| 20260507171852 | 86 | 91 | 3.0 | 6.0 | 0.00 | 0.00 | 0.00 | 76 | 1004.0 |
| 20260507171351 | 86 | 69 | 7.0 | 9.0 | 0.00 | 0.00 | 0.00 | 76 | 1004.0 |
| 20260507170850 | 86 | 88 | 3.0 | 7.0 | 0.00 | 0.00 | 0.00 | 76 | 1004.0 |
| 20260507170351 | 86 | 50 | 2.0 | 3.0 | 0.00 | 0.00 | 0.00 | 76 | 1004.0 |
| 20260507165850 | 86 | 84 | 5.0 | 7.0 | 0.00 | 0.00 | 0.00 | 77 | 1004.0 |
| 20260507165351 | 86 | 90 | 4.0 | 6.0 | 0.00 | 0.00 | 0.00 | 77 | 1004.0 |
| 20260507164850 | 86 | 54 | 3.0 | 7.0 | 0.00 | 0.00 | 0.00 | 77 | 1004.0 |
| 20260507164352 | 86 | 35 | 5.0 | 7.0 | 0.00 | 0.00 | 0.00 | 76 | 1004.0 |
| 20260507163851 | 86 | 57 | 3.0 | 5.0 | 0.00 | 0.00 | 0.00 | 76 | 1004.0 |
| 20260507163351 | 86 | 80 | 1.0 | 2.0 | 0.00 | 0.00 | 0.00 | 76 | 1004.0 |
| 20260507162851 | 86 | 95 | 3.0 | 3.0 | 0.00 | 0.00 | 0.00 | 76 | 1004.0 |
| 20260507162351 | 86 | 72 | 3.0 | 3.0 | 0.00 | 0.00 | 0.00 | 76 | 1004.0 |
| 20260507161851 | 87 | 67 | 5.0 | 7.0 | 0.00 | 0.00 | 0.00 | 75 | 1004.0 |
| 20260507161351 | 87 | 154 | 2.0 | 5.0 | 0.00 | 0.00 | 0.00 | 75 | 1004.0 |
| 20260507160851 | 86 | 77 | 3.0 | 5.0 | 0.00 | 0.00 | 0.00 | 75 | 1004.0 |
| 20260507160350 | 86 | 105 | 1.0 | 1.0 | 0.00 | 0.00 | 0.00 | 76 | 1004.0 |
| 20260507155850 | 86 | 89 | 4.0 | 6.0 | 0.00 | 0.00 | 0.00 | 76 | 1004.0 |
| 20260507155351 | 87 | 66 | 4.0 | 5.0 | 0.00 | 0.00 | 0.00 | 75 | 1004.0 |
| 20260507154851 | 87 | 61 | 1.0 | 2.0 | 0.00 | 0.00 | 0.00 | 75 | 1004.0 |
| 20260507154352 | 87 | 60 | 5.0 | 6.0 | 0.00 | 0.00 | 0.00 | 75 | 1004.0 |
| 20260507153850 | 86 | 104 | 4.0 | 6.0 | 0.00 | 0.00 | 0.00 | 75 | 1003.0 |
| 20260507153351 | 86 | 80 | 3.0 | 5.0 | 0.00 | 0.00 | 0.00 | 76 | 1003.0 |
| 20260507152850 | 87 | 73 | 4.0 | 6.0 | 0.00 | 0.00 | 0.00 | 76 | 1003.0 |
| 20260507152351 | 87 | 113 | 2.0 | 3.0 | 0.00 | 0.00 | 0.00 | 76 | 1003.0 |
| 20260507151850 | 87 | 80 | 4.0 | 6.0 | 0.00 | 0.00 | 0.00 | 75 | 1003.0 |
| 20260507151350 | 87 | 99 | 2.0 | 3.0 | 0.00 | 0.00 | 0.00 | 75 | 1003.0 |
| 20260507150851 | 86 | 71 | 2.0 | 5.0 | 0.00 | 0.00 | 0.00 | 75 | 1003.0 |
| 20260507150350 | 86 | 78 | 1.0 | 3.0 | 0.00 | 0.00 | 0.00 | 75 | 1003.0 |
| 20260507145851 | 86 | 79 | 5.0 | 7.0 | 0.00 | 0.00 | 0.00 | 75 | 1003.0 |
| 20260507145350 | 86 | 112 | 5.0 | 8.0 | 0.00 | 0.00 | 0.00 | 75 | 1003.0 |
| 20260507144851 | 86 | 73 | 4.0 | 7.0 | 0.00 | 0.00 | 0.00 | 75 | 1002.0 |
| 20260507144350 | 86 | 114 | 5.0 | 7.0 | 0.00 | 0.00 | 0.00 | 75 | 1002.0 |
| 20260507143850 | 86 | 88 | 5.0 | 9.0 | 0.00 | 0.00 | 0.00 | 75 | 1002.0 |
| 20260507143352 | 87 | 100 | 7.0 | 9.0 | 0.00 | 0.00 | 0.00 | 75 | 1002.0 |
| 20260507142850 | 87 | 97 | 5.0 | 6.0 | 0.00 | 0.00 | 0.00 | 75 | 1002.0 |
| 20260507142351 | 87 | 70 | 6.0 | 9.0 | 0.00 | 0.00 | 0.00 | 75 | 1002.0 |
| 20260507141850 | 87 | 65 | 5.0 | 9.0 | 0.00 | 0.00 | 0.00 | 75 | 1002.0 |
| 20260507141350 | 87 | 97 | 5.0 | 9.0 | 0.00 | 0.00 | 0.00 | 76 | 1002.0 |
| 20260507140850 | 87 | 90 | 1.0 | 2.0 | 0.00 | 0.00 | 0.00 | 76 | 1002.0 |
| 20260507140351 | 87 | 84 | 5.0 | 7.0 | 0.00 | 0.00 | 0.00 | 76 | 1002.0 |
| 20260507135851 | 87 | 108 | 4.0 | 6.0 | 0.00 | 0.00 | 0.00 | 76 | 1002.0 |
| 20260507135351 | 87 | 71 | 8.0 | 10.0 | 0.00 | 0.00 | 0.00 | 76 | 1002.0 |
| 20260507134851 | 87 | 95 | 1.0 | 2.0 | 0.00 | 0.00 | 0.00 | 77 | 1002.0 |
| 20260507134350 | 87 | 74 | 4.0 | 5.0 | 0.00 | 0.00 | 0.00 | 76 | 1001.0 |
| 20260507133851 | 87 | 41 | 3.0 | 3.0 | 0.00 | 0.00 | 0.00 | 76 | 1002.0 |
| 20260507133350 | 87 | 94 | 3.0 | 5.0 | 0.00 | 0.00 | 0.00 | 75 | 1001.0 |
| 20260507132851 | 87 | 90 | 2.0 | 6.0 | 0.00 | 0.00 | 0.00 | 74 | 1001.0 |
| 20260507132350 | 87 | 101 | 4.0 | 5.0 | 0.00 | 0.00 | 0.00 | 75 | 1001.0 |
| 20260507131423 | 87 | 101 | 3.0 | 5.0 | 0.00 | 0.00 | 0.00 | 74 | 1001.0 |
| 20260507130850 | 87 | 89 | 5.0 | 8.0 | 0.00 | 0.00 | 0.00 | 74 | 1001.0 |
| 20260507130351 | 87 | 59 | 7.0 | 9.0 | 0.00 | 0.00 | 0.00 | 74 | 1001.0 |
| 20260507125851 | 87 | 86 | 3.0 | 5.0 | 0.00 | 0.00 | 0.00 | 74 | 1001.0 |
| 20260507125351 | 87 | 143 | 3.0 | 5.0 | 0.00 | 0.00 | 0.00 | 74 | 1001.0 |
| 20260507124850 | 87 | 93 | 3.0 | 6.0 | 0.00 | 0.00 | 0.00 | 74 | 1001.0 |
| 20260507124350 | 87 | 100 | 3.0 | 7.0 | 0.00 | 0.00 | 0.00 | 74 | 1001.0 |
| 20260507123853 | 87 | 82 | 1.0 | 2.0 | 0.00 | 0.00 | 0.00 | 75 | 1001.0 |
| 20260507123351 | 87 | 49 | 4.0 | 6.0 | 0.00 | 0.00 | 0.00 | 75 | 1001.0 |
| 20260507122850 | 88 | 328 | 2.0 | 2.0 | 0.00 | 0.00 | 0.00 | 75 | 1000.0 |
| 20260507122350 | 88 | 119 | 6.0 | 7.0 | 0.00 | 0.00 | 0.00 | 75 | 1000.0 |
| 20260507121851 | 87 | 84 | 5.0 | 6.0 | 0.00 | 0.00 | 0.00 | 75 | 1000.0 |
| 20260507121351 | 88 | 68 | 10.0 | 11.0 | 0.00 | 0.00 | 0.00 | 74 | 1001.0 |
| 20260507120852 | 88 | 89 | 3.0 | 5.0 | 0.00 | 0.00 | 0.00 | 74 | 1000.0 |
| 20260507120352 | 89 | 46 | 7.0 | 10.0 | 0.00 | 0.00 | 0.00 | 72 | 1000.0 |
| 20260507115850 | 89 | 86 | 4.0 | 5.0 | 0.00 | 0.00 | 0.00 | 72 | 1000.0 |
| 20260507115350 | 89 | 122 | 6.0 | 10.0 | 0.00 | 0.00 | 0.00 | 72 | 1000.0 |
| 20260507114851 | 89 | 115 | 1.0 | 2.0 | 0.00 | 0.00 | 0.00 | 72 | 1000.0 |
| 20260507114351 | 89 | 83 | 5.0 | 7.0 | 0.00 | 0.00 | 0.00 | 71 | 1000.0 |
| 20260507113850 | 89 | 24 | 4.0 | 6.0 | 0.00 | 0.00 | 0.00 | 70 | 1000.0 |
| 20260507113350 | 89 | 76 | 5.0 | 8.0 | 0.00 | 0.00 | 0.00 | 69 | 1000.0 |
| 20260507112850 | 89 | 148 | 2.0 | 3.0 | 0.00 | 0.00 | 0.00 | 69 | 1000.0 |
| 20260507112351 | 90 | 96 | 7.0 | 8.0 | 0.00 | 0.00 | 0.00 | 69 | 1001.0 |
| 20260507111850 | 90 | 143 | 3.0 | 5.0 | 0.00 | 0.00 | 0.00 | 69 | 1000.0 |
| 20260507111350 | 90 | 106 | 2.0 | 3.0 | 0.00 | 0.00 | 0.00 | 68 | 1001.0 |
| 20260507110851 | 90 | 68 | 3.0 | 5.0 | 0.00 | 0.00 | 0.00 | 67 | 1000.0 |
| 20260507110350 | 90 | 139 | 4.0 | 6.0 | 0.00 | 0.00 | 0.00 | 68 | 1000.0 |
| 20260507105850 | 90 | 133 | 4.0 | 6.0 | 0.00 | 0.00 | 0.00 | 67 | 1001.0 |
| 20260507105352 | 90 | 67 | 3.0 | 5.0 | 0.00 | 0.00 | 0.00 | 68 | 1001.0 |
| 20260507104850 | 89 | 141 | 6.0 | 8.0 | 0.00 | 0.00 | 0.00 | 69 | 1000.0 |
| 20260507104351 | 90 | 138 | 6.0 | 8.0 | 0.00 | 0.00 | 0.00 | 70 | 1001.0 |
| 20260507103850 | 90 | 88 | 3.0 | 3.0 | 0.00 | 0.00 | 0.00 | 68 | 1001.0 |
| 20260507103352 | 91 | 78 | 5.0 | 8.0 | 0.00 | 0.00 | 0.00 | 68 | 1001.0 |
| 20260507102852 | 90 | 60 | 4.0 | 5.0 | 0.00 | 0.00 | 0.00 | 67 | 1000.0 |
| 20260507102351 | 90 | 144 | 9.0 | 11.0 | 0.00 | 0.00 | 0.00 | 67 | 1001.0 |
| 20260507101851 | 91 | 80 | 5.0 | 9.0 | 0.00 | 0.00 | 0.00 | 65 | 1001.0 |
| 20260507101350 | 90 | 59 | 4.0 | 6.0 | 0.00 | 0.00 | 0.00 | 67 | 1000.0 |
| 20260507100851 | 91 | 0 | 7.0 | 8.0 | 0.00 | 0.00 | 0.00 | 67 | 1001.0 |
| 20260507100350 | 90 | 165 | 0.0 | 1.0 | 0.00 | 0.00 | 0.00 | 66 | 1001.0 |
| 20260507095851 | 91 | 46 | 3.0 | 8.0 | 0.00 | 0.00 | 0.00 | 67 | 1001.0 |
| 20260507095350 | 92 | 44 | 5.0 | 6.0 | 0.00 | 0.00 | 0.00 | 65 | 1001.0 |
| 20260507094851 | 92 | 90 | 7.0 | 8.0 | 0.00 | 0.00 | 0.00 | 64 | 1001.0 |
| 20260507094350 | 91 | 101 | 4.0 | 5.0 | 0.00 | 0.00 | 0.00 | 65 | 1001.0 |
| 20260507093851 | 92 | 177 | 10.0 | 13.0 | 0.00 | 0.00 | 0.00 | 63 | 1001.0 |
| 20260507093350 | 91 | 81 | 6.0 | 8.0 | 0.00 | 0.00 | 0.00 | 65 | 1001.0 |
| 20260507092851 | 91 | 95 | 5.0 | 8.0 | 0.00 | 0.00 | 0.00 | 64 | 1001.0 |
| 20260507092352 | 92 | 318 | 5.0 | 8.0 | 0.00 | 0.00 | 0.00 | 63 | 1001.0 |
| 20260507091850 | 92 | 98 | 5.0 | 7.0 | 0.00 | 0.00 | 0.00 | 64 | 1001.0 |
| 20260507091351 | 92 | 41 | 5.0 | 8.0 | 0.00 | 0.00 | 0.00 | 61 | 1001.0 |
| 20260507090851 | 93 | 44 | 5.0 | 7.0 | 0.00 | 0.00 | 0.00 | 62 | 1001.0 |
| 20260507090350 | 93 | 61 | 6.0 | 10.0 | 0.00 | 0.00 | 0.00 | 61 | 1001.0 |
| 20260507085851 | 92 | 65 | 7.0 | 9.0 | 0.00 | 0.00 | 0.00 | 63 | 1001.0 |
| 20260507085350 | 92 | 70 | 7.0 | 9.0 | 0.00 | 0.00 | 0.00 | 64 | 1001.0 |
| 20260507084851 | 92 | 103 | 8.0 | 10.0 | 0.00 | 0.00 | 0.00 | 63 | 1001.0 |
| 20260507084351 | 93 | 80 | 7.0 | 8.0 | 0.00 | 0.00 | 0.00 | 62 | 1001.0 |
| 20260507083850 | 92 | 43 | 4.0 | 7.0 | 0.00 | 0.00 | 0.00 | 64 | 1001.0 |
| 20260507083350 | 92 | 100 | 5.0 | 6.0 | 0.00 | 0.00 | 0.00 | 63 | 1001.0 |
| 20260507082850 | 92 | 100 | 3.0 | 8.0 | 0.00 | 0.00 | 0.00 | 63 | 1001.0 |
| 20260507082350 | 93 | 120 | 2.0 | 5.0 | 0.00 | 0.00 | 0.00 | 61 | 1002.0 |
| 20260507081850 | 92 | 112 | 2.0 | 5.0 | 0.00 | 0.00 | 0.00 | 60 | 1001.0 |
| 20260507081350 | 92 | 114 | 5.0 | 6.0 | 0.00 | 0.00 | 0.00 | 62 | 1002.0 |
| 20260507080850 | 92 | 84 | 4.0 | 7.0 | 0.00 | 0.00 | 0.00 | 60 | 1002.0 |
| 20260507080351 | 93 | 108 | 7.0 | 7.0 | 0.00 | 0.00 | 0.00 | 59 | 1002.0 |
| 20260507075851 | 92 | 135 | 6.0 | 8.0 | 0.00 | 0.00 | 0.00 | 60 | 1002.0 |
| 20260507075351 | 93 | 84 | 7.0 | 10.0 | 0.00 | 0.00 | 0.00 | 60 | 1002.0 |
| 20260507074850 | 93 | 147 | 7.0 | 8.0 | 0.00 | 0.00 | 0.00 | 59 | 1002.0 |
| 20260507074350 | 94 | 79 | 5.0 | 7.0 | 0.00 | 0.00 | 0.00 | 58 | 1002.0 |
| 20260507073853 | 94 | 130 | 6.0 | 7.0 | 0.00 | 0.00 | 0.00 | 59 | 1002.0 |
| 20260507073350 | 93 | 164 | 3.0 | 3.0 | 0.00 | 0.00 | 0.00 | 58 | 1002.0 |
| 20260507072851 | 93 | 124 | 4.0 | 5.0 | 0.00 | 0.00 | 0.00 | 58 | 1002.0 |
| 20260507072350 | 93 | 175 | 4.0 | 6.0 | 0.00 | 0.00 | 0.00 | 58 | 1002.0 |
| 20260507071851 | 93 | 120 | 1.0 | 2.0 | 0.00 | 0.00 | 0.00 | 58 | 1003.0 |
| 20260507071350 | 93 | 147 | 5.0 | 7.0 | 0.00 | 0.00 | 0.00 | 57 | 1003.0 |
| 20260507070850 | 93 | 172 | 4.0 | 6.0 | 0.00 | 0.00 | 0.00 | 58 | 1003.0 |
| 20260507070351 | 92 | 158 | 4.0 | 7.0 | 0.00 | 0.00 | 0.00 | 60 | 1003.0 |
| 20260507065851 | 93 | 155 | 3.0 | 5.0 | 0.00 | 0.00 | 0.00 | 59 | 1003.0 |
| 20260507065356 | 93 | 174 | 5.0 | 7.0 | 0.00 | 0.00 | 0.00 | 58 | 1003.0 |
| 20260507064850 | 93 | 100 | 4.0 | 5.0 | 0.00 | 0.00 | 0.00 | 58 | 1003.0 |
| 20260507064350 | 93 | 180 | 8.0 | 9.0 | 0.00 | 0.00 | 0.00 | 59 | 1003.0 |
| 20260507063851 | 93 | 212 | 1.0 | 1.0 | 0.00 | 0.00 | 0.00 | 58 | 1003.0 |
| 20260507063350 | 93 | 136 | 7.0 | 8.0 | 0.00 | 0.00 | 0.00 | 58 | 1003.0 |
| 20260507062850 | 93 | 40 | 5.0 | 7.0 | 0.00 | 0.00 | 0.00 | 59 | 1003.0 |
| 20260507062350 | 93 | 145 | 4.0 | 5.0 | 0.00 | 0.00 | 0.00 | 59 | 1003.0 |
| 20260507061850 | 93 | 82 | 6.0 | 10.0 | 0.00 | 0.00 | 0.00 | 59 | 1003.0 |
| 20260507061351 | 93 | 119 | 9.0 | 10.0 | 0.00 | 0.00 | 0.00 | 59 | 1003.0 |
| 20260507060851 | 92 | 48 | 6.0 | 8.0 | 0.00 | 0.00 | 0.00 | 59 | 1003.0 |
| 20260507060351 | 93 | 168 | 2.0 | 2.0 | 0.00 | 0.00 | 0.00 | 59 | 1003.0 |
| 20260507055851 | 93 | 125 | 4.0 | 6.0 | 0.00 | 0.00 | 0.00 | 58 | 1003.0 |
| 20260507055350 | 93 | 110 | 3.0 | 5.0 | 0.00 | 0.00 | 0.00 | 57 | 1003.0 |
| 20260507054850 | 92 | 84 | 1.0 | 1.0 | 0.00 | 0.00 | 0.00 | 59 | 1003.0 |
| 20260507054350 | 92 | 174 | 6.0 | 7.0 | 0.00 | 0.00 | 0.00 | 58 | 1004.0 |
| 20260507053851 | 92 | 161 | 8.0 | 10.0 | 0.00 | 0.00 | 0.00 | 57 | 1004.0 |
| 20260507053350 | 92 | 147 | 2.0 | 3.0 | 0.00 | 0.00 | 0.00 | 58 | 1004.0 |
| 20260507052852 | 92 | 139 | 5.0 | 7.0 | 0.00 | 0.00 | 0.00 | 59 | 1004.0 |
| 20260507052350 | 92 | 141 | 4.0 | 5.0 | 0.00 | 0.00 | 0.00 | 60 | 1004.0 |
| 20260507051850 | 92 | 136 | 2.0 | 2.0 | 0.00 | 0.00 | 0.00 | 61 | 1004.0 |
| 20260507051350 | 92 | 148 | 3.0 | 3.0 | 0.00 | 0.00 | 0.00 | 59 | 1004.0 |
| 20260507050850 | 91 | 152 | 3.0 | 3.0 | 0.00 | 0.00 | 0.00 | 61 | 1004.0 |
| 20260507050350 | 91 | 61 | 1.0 | 5.0 | 0.00 | 0.00 | 0.00 | 62 | 1004.0 |
| 20260507045851 | 91 | 188 | 4.0 | 6.0 | 0.00 | 0.00 | 0.00 | 64 | 1004.0 |
| 20260507045350 | 91 | 155 | 1.0 | 1.0 | 0.00 | 0.00 | 0.00 | 65 | 1004.0 |
| 20260507044851 | 90 | 143 | 0.0 | 1.0 | 0.00 | 0.00 | 0.00 | 65 | 1004.0 |
| 20260507044350 | 90 | 125 | 0.0 | 0.0 | 0.00 | 0.00 | 0.00 | 64 | 1004.0 |
| 20260507043852 | 90 | 112 | 2.0 | 2.0 | 0.00 | 0.00 | 0.00 | 64 | 1004.0 |
| 20260507043350 | 90 | 132 | 1.0 | 1.0 | 0.00 | 0.00 | 0.00 | 64 | 1004.0 |
| 20260507042850 | 91 | 178 | 3.0 | 5.0 | 0.00 | 0.00 | 0.00 | 65 | 1004.0 |
| 20260507042350 | 92 | 146 | 3.0 | 5.0 | 0.00 | 0.00 | 0.00 | 63 | 1004.0 |
| 20260507041851 | 93 | 154 | 0.0 | 1.0 | 0.00 | 0.00 | 0.00 | 61 | 1004.0 |
| 20260507041350 | 91 | 168 | 0.0 | 0.0 | 0.00 | 0.00 | 0.00 | 64 | 1004.0 |
| 20260507040850 | 90 | 116 | 1.0 | 2.0 | 0.00 | 0.00 | 0.00 | 66 | 1004.0 |
| 20260507040350 | 90 | 132 | 2.0 | 3.0 | 0.00 | 0.00 | 0.00 | 67 | 1004.0 |
| 20260507035850 | 90 | 153 | 1.0 | 2.0 | 0.00 | 0.00 | 0.00 | 67 | 1004.0 |
| 20260507035350 | 91 | 84 | 2.0 | 3.0 | 0.00 | 0.00 | 0.00 | 64 | 1005.0 |
| 20260507034850 | 91 | 148 | 2.0 | 2.0 | 0.00 | 0.00 | 0.00 | 64 | 1004.0 |
| 20260507034351 | 92 | 50 | 2.0 | 3.0 | 0.00 | 0.00 | 0.00 | 66 | 1004.0 |
| 20260507033850 | 91 | 278 | 1.0 | 1.0 | 0.00 | 0.00 | 0.00 | 68 | 1005.0 |
| 20260507033351 | 91 | 169 | 1.0 | 1.0 | 0.00 | 0.00 | 0.00 | 69 | 1005.0 |
| 20260507032851 | 91 | 175 | 1.0 | 2.0 | 0.00 | 0.00 | 0.00 | 68 | 1004.0 |
| 20260507032351 | 90 | 144 | 0.0 | 0.0 | 0.00 | 0.00 | 0.00 | 71 | 1004.0 |
| 20260507031850 | 89 | 166 | 0.0 | 0.0 | 0.00 | 0.00 | 0.00 | 72 | 1004.0 |
| 20260507031350 | 88 | 169 | 0.0 | 0.0 | 0.00 | 0.00 | 0.00 | 73 | 1004.0 |
| 20260507030850 | 87 | 216 | 2.0 | 2.0 | 0.00 | 0.00 | 0.00 | 75 | 1004.0 |
| 20260507030350 | 88 | 243 | 3.0 | 3.0 | 0.00 | 0.00 | 0.00 | 74 | 1004.0 |
| 20260507025850 | 87 | 174 | 0.0 | 1.0 | 0.00 | 0.00 | 0.00 | 76 | 1004.0 |
| 20260507025350 | 86 | 210 | 2.0 | 2.0 | 0.00 | 0.00 | 0.00 | 77 | 1004.0 |
| 20260507024851 | 87 | 246 | 2.0 | 2.0 | 0.00 | 0.00 | 0.00 | 76 | 1004.0 |
| 20260507024350 | 87 | 151 | 0.0 | 0.0 | 0.00 | 0.00 | 0.00 | 76 | 1004.0 |
| 20260507023850 | 87 | 166 | 1.0 | 1.0 | 0.00 | 0.00 | 0.00 | 76 | 1004.0 |
| 20260507023351 | 88 | 172 | 1.0 | 1.0 | 0.00 | 0.00 | 0.00 | 75 | 1004.0 |
| 20260507022850 | 87 | 162 | 0.0 | 0.0 | 0.00 | 0.00 | 0.00 | 76 | 1004.0 |
| 20260507022351 | 87 | 156 | 0.0 | 1.0 | 0.00 | 0.00 | 0.00 | 76 | 1004.0 |
| 20260507021851 | 88 | 176 | 1.0 | 1.0 | 0.00 | 0.00 | 0.00 | 75 | 1004.0 |
| 20260507021351 | 88 | 182 | 1.0 | 1.0 | 0.00 | 0.00 | 0.00 | 74 | 1004.0 |
| 20260507020850 | 87 | 169 | 0.0 | 0.0 | 0.00 | 0.00 | 0.00 | 76 | 1004.0 |
| 20260507020351 | 87 | 155 | 0.0 | 0.0 | 0.00 | 0.00 | 0.00 | 77 | 1004.0 |
| 20260507015850 | 87 | 319 | 3.0 | 5.0 | 0.00 | 0.00 | 0.00 | 77 | 1004.0 |
| 20260507015351 | 86 | 290 | 3.0 | 3.0 | 0.00 | 0.00 | 0.00 | 78 | 1004.0 |
| 20260507014851 | 86 | 184 | 2.0 | 3.0 | 0.00 | 0.00 | 0.00 | 79 | 1004.0 |
| 20260507014350 | 86 | 286 | 3.0 | 3.0 | 0.00 | 0.00 | 0.00 | 78 | 1003.0 |
| 20260507013851 | 86 | 164 | 0.0 | 0.0 | 0.00 | 0.00 | 0.00 | 80 | 1003.0 |
| 20260507013351 | 85 | 214 | 0.0 | 0.0 | 0.00 | 0.00 | 0.00 | 80 | 1003.0 |
| 20260507012851 | 85 | 177 | 0.0 | 1.0 | 0.00 | 0.00 | 0.00 | 80 | 1003.0 |
| 20260507012351 | 85 | 320 | 1.0 | 2.0 | 0.00 | 0.00 | 0.00 | 81 | 1003.0 |
| 20260507011851 | 84 | 200 | 1.0 | 2.0 | 0.00 | 0.00 | 0.00 | 81 | 1003.0 |
| 20260507011350 | 84 | 130 | 0.0 | 0.0 | 0.00 | 0.00 | 0.00 | 81 | 1003.0 |
| 20260507010852 | 84 | 200 | 1.0 | 1.0 | 0.00 | 0.00 | 0.00 | 82 | 1003.0 |
| 20260507010350 | 84 | 137 | 2.0 | 3.0 | 0.00 | 0.00 | 0.00 | 82 | 1003.0 |
| 20260507005851 | 84 | 143 | 1.0 | 1.0 | 0.00 | 0.00 | 0.00 | 83 | 1003.0 |
| 20260507005350 | 84 | 170 | 1.0 | 1.0 | 0.00 | 0.00 | 0.00 | 83 | 1003.0 |
| 20260507004850 | 84 | 282 | 2.0 | 2.0 | 0.00 | 0.00 | 0.00 | 83 | 1003.0 |
| 20260507004350 | 84 | 209 | 1.0 | 1.0 | 0.00 | 0.00 | 0.00 | 83 | 1003.0 |
| 20260507003850 | 84 | 229 | 1.0 | 2.0 | 0.00 | 0.00 | 0.00 | 83 | 1003.0 |
| 20260507003351 | 84 | 232 | 1.0 | 1.0 | 0.00 | 0.00 | 0.00 | 83 | 1003.0 |
| 20260507002851 | 84 | 182 | 0.0 | 0.0 | 0.00 | 0.00 | 0.00 | 83 | 1003.0 |
| 20260507002352 | 84 | 178 | 1.0 | 1.0 | 0.00 | 0.00 | 0.00 | 83 | 1003.0 |
| 20260507001850 | 84 | 191 | 1.0 | 1.0 | 0.00 | 0.00 | 0.00 | 82 | 1003.0 |
| 20260507001350 | 84 | 263 | 1.0 | 1.0 | 0.00 | 0.00 | 0.00 | 82 | 1002.0 |
| 20260507000850 | 84 | 280 | 1.0 | 2.0 | 0.00 | 0.00 | 0.00 | 82 | 1003.0 |
| 20260507000351 | 84 | 146 | 0.0 | 1.0 | 0.00 | 0.00 | 0.00 | 82 | 1002.0 |
| 20260506235851 | 85 | 251 | 0.0 | 0.0 | 0.00 | 0.00 | 0.00 | 81 | 1002.0 |
| 20260506235351 | 85 | 197 | 0.0 | 1.0 | 0.00 | 0.00 | 0.00 | 80 | 1002.0 |
| 20260506234850 | 85 | 170 | 0.0 | 0.0 | 0.00 | 0.00 | 0.00 | 79 | 1002.0 |
| 20260506234351 | 85 | 191 | 1.0 | 2.0 | 0.00 | 0.00 | 0.00 | 79 | 1002.0 |
| 20260506233852 | 85 | 180 | 1.0 | 2.0 | 0.00 | 0.00 | 0.00 | 78 | 1002.0 |
| 20260506233351 | 85 | 178 | 2.0 | 2.0 | 0.00 | 0.00 | 0.00 | 79 | 1002.0 |
| 20260506232850 | 85 | 176 | 2.0 | 3.0 | 0.00 | 0.00 | 0.00 | 79 | 1002.0 |
| 20260506232350 | 85 | 205 | 2.0 | 2.0 | 0.00 | 0.00 | 0.00 | 79 | 1002.0 |
| 20260506231851 | 85 | 165 | 1.0 | 1.0 | 0.00 | 0.00 | 0.00 | 79 | 1002.0 |
| 20260506231350 | 85 | 172 | 1.0 | 1.0 | 0.00 | 0.00 | 0.00 | 79 | 1002.0 |
| 20260506230850 | 85 | 128 | 0.0 | 1.0 | 0.00 | 0.00 | 0.00 | 79 | 1002.0 |
| 20260506230350 | 85 | 156 | 4.0 | 5.0 | 0.00 | 0.00 | 0.00 | 79 | 1002.0 |
| 20260506225850 | 85 | 143 | 0.0 | 0.0 | 0.00 | 0.00 | 0.00 | 79 | 1002.0 |
| 20260506225350 | 85 | 139 | 0.0 | 0.0 | 0.00 | 0.00 | 0.00 | 79 | 1002.0 |
| 20260506224851 | 85 | 168 | 1.0 | 1.0 | 0.00 | 0.00 | 0.00 | 79 | 1001.0 |
| 20260506224350 | 85 | 185 | 2.0 | 2.0 | 0.00 | 0.00 | 0.00 | 79 | 1002.0 |
| 20260506223851 | 85 | 192 | 3.0 | 3.0 | 0.00 | 0.00 | 0.00 | 79 | 1001.0 |
| 20260506223351 | 85 | 147 | 1.0 | 2.0 | 0.00 | 0.00 | 0.00 | 78 | 1002.0 |
| 20260506222850 | 85 | 169 | 2.0 | 2.0 | 0.00 | 0.00 | 0.00 | 79 | 1002.0 |
| 20260506222350 | 85 | 159 | 3.0 | 5.0 | 0.00 | 0.00 | 0.00 | 79 | 1002.0 |
| 20260506221851 | 85 | 169 | 1.0 | 2.0 | 0.00 | 0.00 | 0.00 | 78 | 1001.0 |
| 20260506221350 | 85 | 157 | 0.0 | 1.0 | 0.00 | 0.00 | 0.00 | 78 | 1001.0 |
| 20260506220851 | 85 | 167 | 3.0 | 3.0 | 0.00 | 0.00 | 0.00 | 78 | 1001.0 |
| 20260506220351 | 85 | 158 | 3.0 | 5.0 | 0.00 | 0.00 | 0.00 | 79 | 1001.0 |
| 20260506215850 | 85 | 189 | 4.0 | 7.0 | 0.00 | 0.00 | 0.00 | 78 | 1001.0 |
| 20260506215351 | 85 | 193 | 3.0 | 3.0 | 0.00 | 0.00 | 0.00 | 78 | 1001.0 |
| 20260506214850 | 85 | 145 | 3.0 | 3.0 | 0.00 | 0.00 | 0.00 | 79 | 1001.0 |
| 20260506214350 | 85 | 118 | 4.0 | 5.0 | 0.00 | 0.00 | 0.00 | 79 | 1001.0 |
| 20260506213850 | 85 | 135 | 4.0 | 5.0 | 0.00 | 0.00 | 0.00 | 78 | 1001.0 |